KC3PWY-13 Weather Reports


time (UTC)temp
F
wind
direction
speed
knots
gust
knots
rain 1hr
in
rain 24hr
in
rain mn
in
humidity
%
barometer
mb
20260504042152 41 247 0.0 0.0 0.00 0.00 0.00 69 1015.1
20260504041152 42 202 0.0 0.0 0.00 0.00 0.00 68 1015.1
20260504040151 42 202 0.0 0.0 0.00 0.00 0.00 66 1015.0
20260504035150 42 225 0.0 0.0 0.00 0.00 0.00 66 1015.0
20260504034305 43 225 0.0 0.0 0.00 0.00 0.00 65 1015.0
20260504033304 43 247 0.0 0.0 0.00 0.00 0.00 65 1014.9
20260504032149 43 202 0.0 0.0 0.00 0.00 0.00 66 1014.9
20260504031148 43 225 0.0 0.0 0.00 0.00 0.00 65 1015.0
20260504030147 44 180 0.0 0.0 0.00 0.00 0.00 63 1015.0
20260504025146 45 225 0.0 0.0 0.00 0.00 0.00 62 1015.2
20260504024146 45 247 0.0 0.0 0.00 0.00 0.00 61 1015.2
20260504023301 45 247 0.0 0.0 0.00 0.00 0.00 61 1015.3
20260504022145 45 247 0.0 0.0 0.00 0.00 0.00 61 1015.3
20260504021145 45 270 0.0 0.0 0.00 0.00 0.00 61 1015.4
20260504020144 46 202 0.0 0.0 0.00 0.00 0.00 57 1015.3
20260504015258 46 247 0.0 0.0 0.00 0.00 0.00 56 1015.2
20260504014143 47 247 0.0 0.0 0.00 0.00 0.00 55 1015.1
20260504013142 48 247 0.0 0.0 0.00 0.00 0.00 54 1015.1
20260504012257 48 247 0.0 0.0 0.00 0.00 0.00 54 1015.0
20260504011141 48 247 0.0 0.0 0.00 0.00 0.00 53 1015.0
20260504010256 49 270 0.0 0.0 0.00 0.00 0.00 52 1015.0
20260504005142 50 247 0.0 0.0 0.00 0.00 0.00 52 1015.0
20260504004141 50 202 0.0 0.0 0.00 0.00 0.00 51 1014.9
20260504003256 51 247 0.0 0.0 0.00 0.00 0.00 50 1014.9
20260504002140 52 225 0.0 0.0 0.00 0.00 0.00 48 1014.9
20260504001140 53 180 0.0 0.9 0.00 0.00 0.00 48 1014.9
20260504000255 54 247 0.0 0.9 0.00 0.00 0.00 47 1014.9
20260503235139 54 112 0.0 1.7 0.00 0.00 0.00 44 1014.8
20260503234139 55 180 0.9 2.6 0.00 0.00 0.00 45 1014.9
20260503233138 56 202 0.0 2.6 0.00 0.00 0.00 46 1014.9
20260503232137 56 225 0.0 4.3 0.00 0.00 0.00 43 1014.9
20260503231136 56 202 1.7 3.5 0.00 0.00 0.00 43 1015.0
20260503230137 57 225 1.7 2.6 0.00 0.00 0.00 43 1014.9
20260503225136 57 112 0.0 2.6 0.00 0.00 0.00 42 1014.9
20260503224135 58 202 0.9 1.7 0.00 0.00 0.00 41 1015.0
20260503223135 58 180 1.7 2.6 0.00 0.00 0.00 40 1015.0
20260503222134 58 202 0.9 2.6 0.00 0.00 0.00 41 1015.1
20260503221134 59 337 1.7 3.5 0.00 0.00 0.00 40 1015.1
20260503220133 60 225 0.0 1.7 0.00 0.00 0.00 43 1015.1
20260503215247 59 247 1.7 3.5 0.00 0.00 0.00 39 1015.0
20260503214131 61 270 1.7 5.2 0.00 0.00 0.00 38 1014.9
20260503213131 61 180 0.0 5.2 0.00 0.00 0.00 39 1015.0
20260503212245 63 112 0.9 4.3 0.00 0.00 0.00 36 1014.9
20260503211129 62 202 0.9 3.5 0.00 0.00 0.00 37 1014.8
20260503210131 60 22 1.7 3.5 0.00 0.00 0.00 39 1015.0
20260503205129 60 292 1.7 4.3 0.00 0.00 0.00 37 1015.1
20260503204129 62 202 1.7 4.3 0.00 0.00 0.00 36 1015.3
20260503203128 62 292 1.7 2.6 0.00 0.00 0.00 37 1015.4
20260503202128 62 337 1.7 3.5 0.00 0.00 0.00 37 1015.5
20260503201127 61 247 0.0 2.6 0.00 0.00 0.00 40 1015.5
20260503200127 63 225 2.6 4.3 0.00 0.00 0.00 35 1015.6
20260503195126 62 135 2.6 5.2 0.00 0.00 0.00 36 1015.7
20260503194126 63 292 4.3 6.1 0.00 0.00 0.00 35 1015.9
20260503193124 62 45 2.6 5.2 0.00 0.00 0.00 38 1016.0
20260503192123 62 337 2.6 4.3 0.00 0.00 0.00 35 1016.2
20260503191123 63 315 1.7 3.5 0.00 0.00 0.00 36 1016.3
20260503190122 61 337 2.6 5.2 0.00 0.00 0.00 36 1016.5
20260503185122 58 225 1.7 3.5 0.00 0.00 0.00 40 1016.7
20260503184122 60 225 1.7 4.3 0.00 0.00 0.00 38 1016.9
20260503183120 62 270 2.6 3.5 0.00 0.00 0.00 38 1016.9
20260503182235 59 202 0.9 6.1 0.00 0.00 0.00 42 1017.0
20260503181120 61 202 0.9 3.5 0.00 0.00 0.00 37 1017.2
20260503180119 59 90 1.7 4.3 0.00 0.00 0.00 40 1017.3
20260503175118 60 315 0.9 3.5 0.00 0.00 0.00 38 1017.5
20260503174117 61 202 1.7 6.1 0.00 0.00 0.00 36 1017.4
20260503173117 61 225 1.7 6.1 0.00 0.00 0.00 38 1017.7
20260503172116 61 315 2.6 4.3 0.00 0.00 0.00 36 1017.8
20260503171116 60 202 2.6 3.5 0.00 0.00 0.00 37 1017.8
20260503170116 60 90 2.6 5.2 0.00 0.00 0.00 38 1018.0
20260503160112 59 157 1.7 4.3 0.00 0.02 0.00 38 1018.4
20260503150224 54 180 1.7 3.5 0.00 0.02 0.00 39 1018.8
20260503140107 49 315 1.7 3.5 0.00 0.02 0.00 57 1019.2
20260503131218 43 247 0.9 2.6 0.00 0.02 0.00 79 1019.4
20260503130104 41 202 0.9 2.6 0.00 0.02 0.00 81 1019.4
20260503120216 35 225 0.0 0.0 0.00 0.02 0.00 99 1019.0
20260503081050 31 247 0.0 0.0 0.00 0.02 0.00 99 1017.8
20260503072047 32 247 0.0 0.0 0.00 0.02 0.00 99 1017.7
20260503071047 32 247 0.0 0.0 0.00 0.02 0.00 99 1017.6
20260503055042 32 112 0.0 0.0 0.00 0.02 0.00 99 1017.7
20260503054041 32 270 0.0 0.0 0.00 0.02 0.00 99 1017.8
20260503053041 32 247 0.0 0.0 0.00 0.02 0.00 99 1017.8
20260503052040 32 270 0.0 0.0 0.00 0.02 0.00 99 1017.9
20260503051040 32 202 0.0 0.0 0.00 0.02 0.00 99 1017.8
20260503050040 32 247 0.0 0.0 0.00 0.02 0.00 99 1018.0
20260503045154 32 225 0.0 0.0 0.00 0.02 0.00 99 1018.0
20260503044039 32 247 0.0 0.0 0.00 0.02 0.00 99 1018.0
20260503043038 32 247 0.0 0.0 0.00 0.02 0.00 99 1018.0